Current weather by "City, St" or "zip code"  
 
Advertise Here

Current Conditions: De Kalb Taylor Municipal Airport, IL

Fair


72.0 F

Last Updated on Jul 26 2021, 11:55 pm CDT
Humidity: 79%
Wind Speed: SW 5.8 mph
Barometer 30.07 in
Dewpoint: 64.8 F
Visibility: 10.00 mi
Precip: --
Heat Index: NA
Wind Chill: NA
Current conditions at:

De Kalb Taylor Municipal Airport, IL (KDKB)

Lat: 41.93381 Lon: 88.70657

Local Radar Image active severe weather and emergency alerts image image weather storm and storm spotter reports image weather observation monitoring service image
Local
Radar
Active
Alerts
Storm Reports Obs
Monitoring

Sign-up For Email & Text Message Weather Alert Notification Services


Advertise Here

Observation History for De Kalb Taylor Municipal Airport, IL


Time Wind
(mph)
Vis
(mi)
Weather Precip (in) Temperature (F) Relative
Humidity
Wind
Chill
(F)
Heat
Index
(F)
Pressure
Air Dwpt altimeter
(in)
sea level
(mb)
Rmks
11:55 pm CDT SW 5.8 10.00 Fair -- 72.0 64.8 79% NA NA 30.07 M
11:35 pm CDT SW 3.5 10.00 Fair -- 71.0 64.8 80% NA NA 30.07 M
10:55 pm CDT SW 3.5 10.00 Fair -- 72.0 65.8 82% NA NA 30.04 M
9:55 pm CDT SW 4.6 10.00 Fair -- 73.0 65.1 75% NA NA 30.04 M
8:55 pm CDT SW 4.6 10.00 Fair -- 78.0 63.0 60% NA NA 30.03 M
8:35 pm CDT W 4.6 10.00 Fair -- 77.0 63.7 64% NA NA 30.03 M
7:55 pm CDT W 4.6 10.00 Fair -- 80.0 63.5 56% NA 81 30.03 M
6:55 pm CDT SW 5.8 10.00 Fair -- 83.0 65.5 56% NA 85 30.03 M
5:55 pm CDT W 6.9 10.00 Fair -- 84.0 62.2 48% NA 85 30.04 M
4:55 pm CDT W 9.2 10.00 Fair -- 85.0 63.0 47% NA 86 30.05 M
3:55 pm CDT S 4.6 10.00 Fair -- 87.0 63.5 46% NA 88 30.06 M
2:55 pm CDT N 0.0 10.00 Fair -- 87.0 59.7 40% NA 87 30.06 M
1:55 pm CDT W 4.6 10.00 Fair -- 87.0 62.6 45% NA 88 30.07 M
12:55 pm CDT N 0.0 10.00 Fair -- 86.0 61.9 44% NA 86 30.08 M
11:55 am CDT NW 3.5 10.00 Fair -- 84.0 63.9 51% NA 85 30.08 M
10:55 am CDT NW 4.6 10.00 Fair -- 82.0 64.2 56% NA 84 30.08 M
9:35 am CDT NW 3.5 10.00 Fair -- 77.0 65.8 68% NA NA 30.07 M
8:35 am CDT NW 3.5 10.00 Fair -- 73.0 63.7 73% NA NA 30.07 M
7:35 am CDT NW 4.6 10.00 Fair -- 69.0 62.8 82% NA NA 30.07 M
6:55 am CDT NW 5.8 10.00 Fair -- 67.0 60.1 80% NA NA 30.06 M
5:55 am CDT NW 6.9 10.00 Fair -- 63.0 58.3 85% 63 NA 30.05 M
5:35 am CDT NW 6.9 10.00 Fair -- 64.0 58.6 83% NA NA 30.04 M
4:55 am CDT NW 4.6 10.00 Fair -- 65.0 59.0 81% NA NA 30.03 M
3:55 am CDT NW 5.8 10.00 Fair -- 65.0 59.5 84% NA NA 30.02 M

Regional Weather Observation


De Kalb Taylor Municipal Airport, IL (KDKB)

Fair
72.0 F

Rochelle, Rochelle Municipal-Koritz Field Airport, IL (KRPJ)

Fair
65.0 F

Janesville-Rock County, WI (KJVL)

Fair
72.0 F

Albertus Airport, IL (KFEP)

Fair
71.0 F

Aurora Municipal Airport, IL (KARR)

Fair
67.0 F

Chicago / West Chicago, Dupage Airport, IL (KDPA)

Fair
74.0 F
Advertise Here

Advertise Here